World > North America > United States > Wyoming > Lingle   Town of Lingle, WY

Lingle, WY Hourly Weather Updates

Feedback E-mail the Weather

Quick Clicks

Lingle, WY Weather Maps

°F °C°F °C
Lingle Weather Map
UTC Time: 4/14/2024, 01:50
Your Time:

Lingle, WY Regional Weather

Expires:202404140200;;699761
ASUS45 KCYS 140110
RWRWY 

WYOMING REGIONAL WEATHER ROUNDUP
NATIONAL WEATHER SERVICE CHEYENNE WY
700 PM MDT SAT APR 13 2024

NOTE:  "FAIR" INDICATES FEW OR NO CLOUDS BELOW 12,000 FEET
WITH NO SIGNIFICANT WEATHER AND/OR OBSTRUCTIONS TO VISIBILITY.


WYZ021-027>030-104>119-140200-
...SOUTHERN WYOMING...
  
CITY           SKY/WX    TMP DP  RH WIND       PRES   REMARKS
EVANSTON       MOSUNNY   63  14  15 SW9       30.03F                  
KEMMERER       SUNNY     61   5  11 W10       30.05F                  
FORT BRIDGER   SUNNY     65  10  11 SW9       30.06F                  
ROCK SPRINGS   MOCLDY    64  17  16 VRB7      30.02S                  
DIXON          PTCLDY    66  19  16 SW9       30.06F                  
RAWLINS        PTCLDY    64  16  15 SW8       30.03S                  
SARATOGA       MOCLDY    63  16  16 SW10      30.07S                  
LARAMIE        PTCLDY    58  20  22 SW9       30.06S                  
CHEYENNE       PTCLDY    66  62  87 NW12      30.00S                  
TORRINGTON     PTCLDY    74  27  17 N8        29.86S                  
PINE BLUFFS      N/A     63  27  25 E5        29.97S                  

$$
  

SKY/WX - Weather  TMP - Temperature  DP - Dew Point  RH - Humidity
WIND - Wind Direction/Speed PRES - Barometric Pressure VSB - Visibility
WCI - Wind Chill Index E13G22 Wind - East Wind 13 mph/Gusts of 22 mph

Trending Headlines

Trending Entertainment Headlines

Lingle Radar Loop

Use the map search tool if you want to place a location marker on the radar map...

Lingle Quick Facts

National Two Day Weather Forecast


E-mail the Lingle Weather Forecast

Voice your opinion or tell us about page issues...